Regional Weather Roundup
Issued by NWS Goodland, KS

Home | Current Version | Previous Version | Graphics & Text | Print | Product List | Glossary On
Versions: 1 2 3 4 5 6 7 8 9 10 11 12 13 14 15 16 17 18 19 20 21 22 23 24 25 26 27 28 29 30 31 32 33 34 35 36 37 38 39 40 41 42 43 44 45 46 47 48 49 50
000
ASUS43 KGLD 181308
RWRGLD

GOODLAND FORECAST AREA HOURLY WEATHER ROUNDUP
NATIONAL WEATHER SERVICE GOODLAND KS
700 AM MDT SAT APR 18 2015

...OFFICIAL OBSERVATIONS...

CITY           SKY/WX    TMP DP  RH WIND       PRES   REMARKS
GOODLAND KS    FOG       42  42 100 E6        29.91S VSB<1/4
HILL CITY KS   PTSUNNY   46  45  96 CALM      29.93R
IMPERIAL NEB   FOG       42  41  96 CALM      29.92R VSB 1/4
MCCOOK NEB     SUNNY     47  44  90 SW3       29.93R
AKRON CO       MOCLDY    38  38 100 NW8       29.92S FOG
BURLINGTON CO  CLOUDY    43  41  93 N13       29.90F FOG
LIMON CO       CLOUDY    37  36  96 NW10      29.93S FOG
$$

...UNOFFICIAL OBSERVATIONS...

CITY           SKY/WX    TMP DP  RH WIND       PRES   REMARKS
GOVE KS          N/A     44  32  63 MISG        N/A
LENORA KS        N/A     46  32  58 MISG        N/A
SHARON SPRINGS   N/A     38  37  95 MISG        N/A
TRIBUNE KS     CLOUDY    39  39 100 NW5       29.90S VSB 1/2
YUMA CO          N/A     41  39  94 NW9         N/A
$$


USA.gov is the U.S. government's official web portal to all federal, state and local government web resources and services.